Tracking 22879 objects as of 21-Apr-2021
HD Live streaming from Space Station
objects crossing your sky now

COSMOS 1199

Track COSMOS 1199 now!
10-day predictions
COSMOS 1199 is classified as:


NORAD ID: 11882
Int'l Code: 1980-058H
Perigee: 1,479.8 km
Apogee: 1,537.8 km
Inclination: 74.0 °
Period: 116.0 minutes
Semi major axis: 7879 km
RCS: 0.728 m2 (medium)
Launch date: July 9, 1980
Source: Commonwealth of Independent States (former USSR) (CIS)
Launch site: PLESETSK MISSILE AND SPACE COMPLEX (PKMTR)
aabbcc
Your satellite tracking list
Your tracking list is empty




NASA's NSSDC Master Catalog

Two Line Element Set (TLE):
1 11882U 80058H   21110.93693285  .00000006  00000-0  15886-3 0  9998
2 11882  74.0164 264.6516 0036807 217.0404 246.4403 12.41172267847854
Source of the keplerian elements: AFSPC